Location: Alafon
(8.4500°N, 4.2333°E)
Time: 17:41:13
(UTC+00:00)

SR - Pass Details

Date: 06 August 2021
Orbit: 581 x 874 km, 66.7° (Epoch: 18 September)

Event Time Altitude Azimuth Distance (km) Brightness Sun altitude
Rises 04:32:19 0° 239° (WSW) 3,450 - -15.6°
Reaches altitude 10° 04:36:10 10° 264° (W) 2,517 - -14.7°
Exits shadow 04:38:18 14° 285° (WNW) 2,267 ? -14.2°
Maximum altitude 04:39:01 14° 293° (WNW) 2,247 ? -14.1°
Drops below altitude 10° 04:41:51 10° 323° (NW) 2,492 ? -13.4°
Sets 04:45:39 0° 348° (NNW) 3,392 ? -12.5°
